Weather History for KFET - October, 2014

Change the Weather History Date:

Friday, October 10, 2014

  Actual Average Record
Temperature  
Mean Temperature 46 °F -  
Max Temperature 55 °F 67 °F 88 °F (1953)
Min Temperature 37 °F 39 °F 25 °F (2012)
Degree Days  
Heating Degree Days 19    
Moisture  
Dew Point 35 °F    
Average Humidity 62    
Maximum Humidity 87    
Minimum Humidity 43    
Precipitation  
Precipitation 0.00 in - - ()
Sea Level Pressure  
Sea Level Pressure 30.23 in    
Wind  
Wind Speed 3 mph (North)    
Max Wind Speed 7 mph    
Max Gust Speed -    
Visibility 10 miles    
Events      
Averages and records for this station are not official NWS values.
T = Trace of Precipitation, MM = Missing Value Source: NWS Daily Summary

Daily Weather History Graph

Daily Weather History Graph

Search for Another Location

Airport or City:

Trip Planner

Search our weather history database for the weather conditions in past years. The results will help you decide how hot, cold, wet, or windy it might be!

Date:

Astronomy

Oct. 10, 2014 Rise Set
Actual Time 7:32 AM CDT 6:52 PM CDT
Civil Twilight 7:04 AM CDT 7:20 PM CDT
Nautical Twilight 6:32 AM CDT 7:52 PM CDT
Astronomical Twilight 6:00 AM CDT 8:24 PM CDT
Moon 8:32 PM CDT (10/10) 9:56 AM CDT (10/10)
Length of Visible Light 12h 15m
Length of Day
11h 20m
Waning Gibbous, 93% of the Moon is Illuminated
Oct 10
Waning Gibbous
Oct 15
Last Quarter
Oct 23
New
Oct 30
First Quarter
Nov 6
Full

Hourly Weather History & Observations

Time (CDT) Temp. Windchill Dew Point Humidity Pressure Visibility Wind Dir Wind Speed Gust Speed Precip Events Conditions
12:15 AM 48.6 °F - 35.1 °F 60% 30.21 in 10.0 mi Calm Calm - N/A   Mostly Cloudy
12:35 AM 48.4 °F - 35.6 °F 61% 30.21 in 10.0 mi NNE 3.5 mph - N/A   Overcast
12:55 AM 48.4 °F - 35.6 °F 61% 30.20 in 10.0 mi North 3.5 mph - N/A   Scattered Clouds
1:15 AM 48.4 °F - 35.2 °F 60% 30.20 in 10.0 mi North 4.6 mph - N/A   Scattered Clouds
1:35 AM 48.6 °F - 34.7 °F 59% 30.19 in 10.0 mi NNE 4.6 mph - N/A   Scattered Clouds
1:55 AM 49.1 °F - 33.8 °F 56% 30.19 in 10.0 mi NNE 5.8 mph - N/A   Mostly Cloudy
2:15 AM 49.1 °F - 33.6 °F 55% 30.20 in 10.0 mi NNE 3.5 mph - N/A   Scattered Clouds
2:35 AM 48.4 °F - 34.0 °F 58% 30.21 in 10.0 mi North 3.5 mph - N/A   Scattered Clouds
2:55 AM 47.5 °F - 35.1 °F 62% 30.20 in 10.0 mi North 3.5 mph - N/A   Scattered Clouds
3:15 AM 47.3 °F - 35.2 °F 63% 30.19 in 10.0 mi North 4.6 mph - N/A   Clear
3:35 AM 46.8 °F - 35.1 °F 64% 30.19 in 10.0 mi North 4.6 mph - N/A   Clear
3:55 AM 47.1 °F - 34.2 °F 61% 30.19 in 10.0 mi NNE 3.5 mph - N/A   Clear
4:15 AM 46.8 °F - 33.6 °F 60% 30.19 in 10.0 mi NNE 5.8 mph - N/A   Clear
4:35 AM 46.8 °F - 33.1 °F 59% 30.20 in 10.0 mi NNE 3.5 mph - N/A   Clear
4:55 AM 45.9 °F - 33.4 °F 62% 30.20 in 10.0 mi Calm Calm - N/A   Clear
5:15 AM 45.3 °F 43.0 °F 33.8 °F 64% 30.20 in 10.0 mi North 4.6 mph - N/A   Clear
5:35 AM 43.9 °F 41.3 °F 34.7 °F 70% 30.20 in 10.0 mi North 4.6 mph - N/A   Clear
5:55 AM 43.3 °F 41.7 °F 34.9 °F 72% 30.21 in 10.0 mi North 3.5 mph - N/A   Clear
6:15 AM 42.6 °F 40.9 °F 35.1 °F 75% 30.21 in 10.0 mi North 3.5 mph - N/A   Clear
6:35 AM 41.9 °F 40.0 °F 35.2 °F 77% 30.21 in 10.0 mi North 3.5 mph - N/A   Clear
6:55 AM 41.9 °F 40.0 °F 35.4 °F 78% 30.23 in 10.0 mi North 3.5 mph - N/A   Clear
7:15 AM 41.7 °F 39.8 °F 35.4 °F 78% 30.23 in 10.0 mi North 3.5 mph - N/A   Clear
7:35 AM 41.4 °F 39.4 °F 35.1 °F 78% 30.23 in 10.0 mi North 3.5 mph - N/A   Clear
7:55 AM 41.2 °F - 35.1 °F 79% 30.25 in 10.0 mi Calm Calm - N/A   Clear
8:15 AM 41.5 °F 39.6 °F 35.2 °F 78% 30.25 in 10.0 mi North 3.5 mph - N/A   Clear
8:35 AM 42.1 °F 40.2 °F 35.4 °F 77% 30.26 in 10.0 mi North 3.5 mph - N/A   Clear
8:55 AM 42.8 °F - 35.2 °F 75% 30.27 in 10.0 mi Calm Calm - N/A   Clear
9:15 AM 43.2 °F - 35.6 °F 75% 30.27 in 10.0 mi Calm Calm - N/A   Clear
9:35 AM 43.7 °F - 35.2 °F 72% 30.28 in 10.0 mi Calm Calm - N/A   Clear
9:55 AM 44.6 °F 43.1 °F 34.9 °F 69% 30.28 in 10.0 mi NE 3.5 mph - N/A   Clear
10:15 AM 45.5 °F - 34.7 °F 66% 30.28 in 10.0 mi Calm Calm - N/A   Clear
10:35 AM 46.6 °F - 34.2 °F 62% 30.29 in 10.0 mi Calm Calm - N/A   Clear
10:55 AM 47.3 °F - 34.5 °F 61% 30.29 in 10.0 mi NNE 3.5 mph - N/A   Clear
11:15 AM 48.2 °F - 34.5 °F 59% 30.28 in 10.0 mi North 3.5 mph - N/A   Clear
11:35 AM 49.3 °F - 34.7 °F 57% 30.28 in 10.0 mi NNE 4.6 mph - N/A   Clear
11:55 AM 50.5 °F - 34.3 °F 54% 30.28 in 10.0 mi Calm Calm - N/A   Clear
12:15 PM 51.1 °F - 33.8 °F 52% 30.28 in 10.0 mi Calm Calm - N/A   Clear
12:35 PM 51.8 °F - 32.9 °F 49% 30.28 in 10.0 mi NNE 5.8 mph - N/A   Clear
12:55 PM 52.0 °F - 33.4 °F 49% 30.27 in 10.0 mi NE 4.6 mph - N/A   Clear
1:15 PM 52.5 °F - 33.4 °F 48% 30.26 in 10.0 mi North 3.5 mph - N/A   Clear
1:35 PM 52.7 °F - 33.6 °F 48% 30.26 in 10.0 mi North 4.6 mph - N/A   Clear
1:55 PM 53.2 °F - 33.8 °F 48% 30.25 in 10.0 mi NNE 3.5 mph - N/A   Clear
2:15 PM 53.6 °F - 33.3 °F 46% 30.23 in 10.0 mi North 6.9 mph - N/A   Clear
2:35 PM 54.1 °F - 33.8 °F 46% 30.23 in 10.0 mi North 5.8 mph - N/A   Clear
2:55 PM 54.1 °F - 33.3 °F 45% 30.23 in 10.0 mi NNE 5.8 mph - N/A   Clear
3:15 PM 54.5 °F - 32.2 °F 43% 30.22 in 10.0 mi NNE 3.5 mph - N/A   Clear
3:35 PM 54.3 °F - 32.7 °F 44% 30.22 in 10.0 mi North 3.5 mph - N/A   Clear
3:55 PM 54.5 °F - 33.3 °F 45% 30.22 in 10.0 mi North 6.9 mph - N/A   Clear
4:15 PM 54.9 °F - 33.4 °F 44% 30.22 in 10.0 mi North 5.8 mph - N/A   Clear
4:35 PM 54.5 °F - 33.1 °F 44% 30.22 in 10.0 mi NNE 3.5 mph - N/A   Clear
4:55 PM 54.7 °F - 32.4 °F 43% 30.21 in 10.0 mi NNE 3.5 mph - N/A   Clear
5:15 PM 54.7 °F - 32.9 °F 44% 30.21 in 10.0 mi NNE 4.6 mph - N/A   Clear
5:35 PM 54.7 °F - 33.1 °F 44% 30.21 in 10.0 mi North 4.6 mph - N/A   Clear
5:55 PM 54.7 °F - 33.3 °F 44% 30.20 in 10.0 mi Calm Calm - N/A   Clear
6:15 PM 54.3 °F - 33.4 °F 45% 30.20 in 10.0 mi Calm Calm - N/A   Clear
6:35 PM 53.8 °F - 33.8 °F 47% 30.21 in 10.0 mi Calm Calm - N/A   Clear
6:55 PM 53.1 °F - 34.3 °F 49% 30.21 in 10.0 mi Calm Calm - N/A   Clear
7:15 PM 51.6 °F - 35.1 °F 53% 30.21 in 10.0 mi Calm Calm - N/A   Clear
7:35 PM 49.1 °F - 36.1 °F 61% 30.21 in 10.0 mi Calm Calm - N/A   Clear
7:55 PM 46.6 °F - 37.0 °F 69% 30.22 in 10.0 mi Calm Calm - N/A   Clear
8:15 PM 46.6 °F - 37.0 °F 69% 30.22 in 10.0 mi Calm Calm - N/A   Clear
8:35 PM 44.6 °F - 36.0 °F 72% 30.22 in 10.0 mi Calm Calm - N/A   Clear
8:55 PM 44.8 °F 43.3 °F 36.3 °F 72% 30.22 in 7.0 mi WNW 3.5 mph - N/A   Clear
9:15 PM 42.1 °F - 35.6 °F 78% 30.23 in 10.0 mi Calm Calm - N/A   Clear
9:35 PM 42.8 °F - 35.6 °F 76% 30.22 in 10.0 mi Calm Calm - N/A   Clear
9:55 PM 42.4 °F - 35.6 °F 77% 30.23 in 10.0 mi Calm Calm - N/A   Clear
10:15 PM 42.1 °F - 35.6 °F 78% 30.23 in 7.0 mi Calm Calm - N/A   Clear
10:35 PM 41.5 °F - 35.4 °F 79% 30.23 in 10.0 mi Calm Calm - N/A   Clear
10:55 PM 40.6 °F 38.6 °F 36.0 °F 83% 30.23 in 10.0 mi WNW 3.5 mph - N/A   Clear
11:15 PM 39.4 °F 37.2 °F 35.1 °F 84% 30.23 in 10.0 mi NW 3.5 mph - N/A   Clear
11:35 PM 38.3 °F 35.9 °F 34.7 °F 87% 30.23 in 10.0 mi NW 3.5 mph - N/A   Clear
11:55 PM 37.9 °F 35.5 °F 34.0 °F 86% 30.23 in 10.0 mi WNW 3.5 mph - N/A   Clear